Location: Brunembert
(50.7122°N, 1.8935°E)
Time: 10:10:19
(UTC+00:00)

NOSS 3-1 (A) - Pass Details

Date: 22 April 2021
Orbit: 733 x 1479 km, 63.4° (Epoch: 01 May)

Event Time Altitude Azimuth Distance (km) Brightness Sun altitude
Rises 22:32:44 0° 315° (NW) 3,915 7.7 -24.5°
Reaches altitude 10° 22:35:16 10° 312° (NW) 3,056 6.9 -24.7°
Maximum altitude 22:42:34 59° 235° (SW) 1,474 4.2 -25.0°
Enters shadow 22:45:03 44° 183° (S) 1,783 4.4 -25.2°
